DLH912 EDHI-EDDV

Flight info

Callsign DLH912
Flight time 0h 38m
Altitude 15000
Route IDEKO9E IDEKO N850 NIE NIE1R
Aircraft A320/M-SDE3FGHIRWY/LB1

Departure

Time 2026-05-05 14:37
Airport Hamburg-Finkenwerder Airport (EDHI)

Arrival

Time 2026-05-05 15:16
Airport Hannover Airport (EDDV)
Time Latitude Longitude Altitude Speed Heading
2026-05-05 13:56 53.53115 9.83534 25 ft 0 kts 207°
2026-05-05 14:18 53.53127 9.83545 22 ft 4 kts 202°
2026-05-05 14:18 53.53142 9.83556 22 ft 1 kts 204°
2026-05-05 14:19 53.53144 9.83557 22 ft 1 kts 204°
2026-05-05 14:22 53.53142 9.83555 22 ft 0 kts 204°
2026-05-05 14:23 53.53153 9.83574 22 ft 2 kts 276°
2026-05-05 14:23 53.53154 9.83577 22 ft 0 kts 284°
2026-05-05 14:26 53.53155 9.83566 24 ft 7 kts 283°
2026-05-05 14:27 53.53173 9.83476 23 ft 8 kts 295°
2026-05-05 14:27 53.53198 9.83388 24 ft 8 kts 295°
2026-05-05 14:27 53.53242 9.83352 24 ft 7 kts
2026-05-05 14:27 53.53273 9.83317 23 ft 0 kts 296°
2026-05-05 14:32 53.53273 9.83316 22 ft 0 kts 296°
2026-05-05 14:34 53.53276 9.83306 22 ft 7 kts 296°
2026-05-05 14:34 53.53316 9.83146 22 ft 17 kts 277°
2026-05-05 14:35 53.53252 9.82963 21 ft 20 kts 230°
2026-05-05 14:35 53.53153 9.82753 19 ft 26 kts 232°
2026-05-05 14:35 53.53036 9.82502 20 ft 29 kts 232°
2026-05-05 14:35 53.52932 9.82262 23 ft 20 kts 250°
2026-05-05 14:36 53.52904 9.82116 20 ft 12 kts 195°
2026-05-05 14:36 53.52882 9.82173 21 ft 5 kts 46°
2026-05-05 14:36 53.52886 9.82182 20 ft 0 kts 51°
2026-05-05 14:36 53.52898 9.82208 20 ft 26 kts 51°
2026-05-05 14:37 53.53228 9.82907 20 ft 119 kts 51°
2026-05-05 14:37 53.53881 9.84275 225 ft 171 kts 51°
2026-05-05 14:37 53.54669 9.85895 1140 ft 179 kts 52°
2026-05-05 14:37 53.55461 9.87577 2057 ft 193 kts 52°
2026-05-05 14:38 53.56329 9.89437 2953 ft 206 kts 51°
2026-05-05 14:38 53.57431 9.90973 4068 ft 212 kts 20°
2026-05-05 14:38 53.58900 9.90956 5138 ft 220 kts 338°
2026-05-05 14:38 53.60099 9.89400 6233 ft 225 kts 313°
2026-05-05 14:39 53.61074 9.87328 7391 ft 227 kts 299°
2026-05-05 14:39 53.61555 9.84791 8517 ft 230 kts 277°
2026-05-05 14:39 53.61498 9.82006 9345 ft 252 kts 257°
2026-05-05 14:39 53.60954 9.79043 9815 ft 275 kts 252°
2026-05-05 14:40 53.60361 9.75961 9919 ft 278 kts 252°
2026-05-05 14:40 53.59730 9.72622 9938 ft 317 kts 252°
2026-05-05 14:40 53.59055 9.68998 9941 ft 328 kts 252°
2026-05-05 14:40 53.58381 9.65361 9947 ft 331 kts 252°
2026-05-05 14:41 53.57428 9.61859 9944 ft 332 kts 238°
2026-05-05 14:41 53.55947 9.58873 9946 ft 333 kts 223°
2026-05-05 14:41 53.54046 9.56655 9943 ft 335 kts 208°
2026-05-05 14:41 53.51848 9.55347 9940 ft 338 kts 193°
2026-05-05 14:42 53.49511 9.54818 9943 ft 339 kts 188°
2026-05-05 14:42 53.47168 9.54359 9921 ft 339 kts 188°
2026-05-05 14:42 53.44828 9.53901 9926 ft 339 kts 188°
2026-05-05 14:42 53.42488 9.53441 9924 ft 339 kts 188°
2026-05-05 14:43 53.40177 9.52986 9931 ft 339 kts 188°
2026-05-05 14:43 53.37839 9.52525 9927 ft 339 kts 188°
2026-05-05 14:43 53.35497 9.52068 9921 ft 338 kts 188°
2026-05-05 14:43 53.33158 9.51616 9926 ft 339 kts 188°
2026-05-05 14:44 53.30816 9.51158 9928 ft 339 kts 188°
2026-05-05 14:44 53.28473 9.50696 9926 ft 339 kts 188°
2026-05-05 14:44 53.26136 9.50238 9922 ft 339 kts 188°
2026-05-05 14:44 53.23794 9.49784 9924 ft 339 kts 188°
2026-05-05 14:45 53.21485 9.49340 9921 ft 339 kts 188°
2026-05-05 14:45 53.19141 9.48887 9926 ft 339 kts 188°
2026-05-05 14:45 53.16801 9.48430 9925 ft 339 kts 188°
2026-05-05 14:45 53.14461 9.47975 9922 ft 339 kts 188°
2026-05-05 14:46 53.12120 9.47520 9922 ft 339 kts 188°
2026-05-05 14:46 53.09779 9.47066 9908 ft 339 kts 188°
2026-05-05 14:46 53.07438 9.46611 9906 ft 338 kts 188°
2026-05-05 14:46 53.05103 9.46157 9906 ft 338 kts 188°
2026-05-05 14:47 53.02763 9.45705 9908 ft 338 kts 188°
2026-05-05 14:47 53.00454 9.45259 9907 ft 339 kts 188°
2026-05-05 14:47 52.98152 9.44808 9901 ft 322 kts 188°
2026-05-05 14:47 52.96003 9.44361 9904 ft 301 kts 189°
2026-05-05 14:48 52.93984 9.43924 9914 ft 288 kts 189°
2026-05-05 14:48 52.92003 9.43490 9911 ft 286 kts 189°
2026-05-05 14:48 52.90033 9.43059 9907 ft 285 kts 189°
2026-05-05 14:48 52.88064 9.42633 9907 ft 285 kts 189°
2026-05-05 14:49 52.86095 9.42212 9914 ft 285 kts 189°
2026-05-05 14:49 52.84126 9.41793 9911 ft 285 kts 189°
2026-05-05 14:49 52.82185 9.41378 9907 ft 285 kts 189°
2026-05-05 14:49 52.80218 9.40958 9906 ft 285 kts 189°
2026-05-05 14:50 52.78251 9.40536 9906 ft 285 kts 189°
2026-05-05 14:50 52.76286 9.40111 9907 ft 285 kts 189°
2026-05-05 14:50 52.74317 9.39690 9909 ft 285 kts 189°
2026-05-05 14:50 52.72347 9.39273 9912 ft 286 kts 189°
2026-05-05 14:51 52.70377 9.38858 9916 ft 286 kts 189°
2026-05-05 14:51 52.68399 9.38439 9916 ft 286 kts 189°
2026-05-05 14:51 52.66450 9.38037 9915 ft 286 kts 187°
2026-05-05 14:51 52.64472 9.38322 9916 ft 289 kts 165°
2026-05-05 14:52 52.62688 9.39867 9917 ft 293 kts 142°
2026-05-05 14:52 52.61407 9.42481 9913 ft 297 kts 118°
2026-05-05 14:52 52.60650 9.45649 9916 ft 298 kts 111°
2026-05-05 14:52 52.59933 9.48850 9913 ft 298 kts 112°
2026-05-05 14:53 52.59209 9.52050 9853 ft 300 kts 112°
2026-05-05 14:53 52.58478 9.55243 9716 ft 298 kts 112°
2026-05-05 14:53 52.57749 9.58419 9586 ft 297 kts 112°
2026-05-05 14:53 52.57030 9.61550 9469 ft 296 kts 112°
2026-05-05 14:54 52.56303 9.64704 9342 ft 295 kts 112°
2026-05-05 14:54 52.55579 9.67844 9216 ft 291 kts 112°
2026-05-05 14:54 52.54880 9.70873 9089 ft 277 kts 112°
2026-05-05 14:54 52.54353 9.73838 8964 ft 265 kts 100°
2026-05-05 14:55 52.54206 9.76826 8839 ft 261 kts 93°
2026-05-05 14:55 52.54128 9.79786 8714 ft 259 kts 93°
2026-05-05 14:55 52.54044 9.82743 8589 ft 259 kts 94°
2026-05-05 14:55 52.53959 9.85686 8464 ft 258 kts 93°
2026-05-05 14:56 52.53872 9.88619 8339 ft 257 kts 94°
2026-05-05 14:56 52.53782 9.91543 8208 ft 256 kts 94°
2026-05-05 14:56 52.53693 9.94425 8087 ft 256 kts 93°
2026-05-05 14:56 52.53608 9.97339 7963 ft 255 kts 93°
2026-05-05 14:57 52.53522 10.00247 7829 ft 255 kts 93°
2026-05-05 14:57 52.53435 10.03149 7712 ft 254 kts 93°
2026-05-05 14:57 52.53348 10.06045 7587 ft 254 kts 94°
2026-05-05 14:57 52.53256 10.08932 7462 ft 254 kts 94°
2026-05-05 14:58 52.53161 10.11822 7337 ft 253 kts 94°
2026-05-05 14:58 52.53068 10.14703 7212 ft 253 kts 94°
2026-05-05 14:58 52.52976 10.17579 7086 ft 252 kts 93°
2026-05-05 14:58 52.52885 10.20410 6962 ft 251 kts 93°
2026-05-05 14:59 52.52793 10.23263 6837 ft 250 kts 93°
2026-05-05 14:59 52.52701 10.26115 6712 ft 250 kts 93°
2026-05-05 14:59 52.52611 10.28956 6591 ft 249 kts 93°
2026-05-05 14:59 52.52518 10.31791 6375 ft 250 kts 93°
2026-05-05 15:00 52.52423 10.34665 5920 ft 250 kts 93°
2026-05-05 15:00 52.52361 10.36541 5708 ft 247 kts 93°
2026-05-05 15:00 52.52237 10.40314 5159 ft 247 kts 92°
2026-05-05 15:00 52.52146 10.43069 5021 ft 234 kts 92°
2026-05-05 15:01 52.52060 10.45621 4968 ft 220 kts 92°
2026-05-05 15:01 52.51944 10.48088 4754 ft 219 kts 99°
2026-05-05 15:01 52.51418 10.50519 4153 ft 232 kts 120°
2026-05-05 15:01 52.50420 10.52556 4017 ft 225 kts 138°
2026-05-05 15:02 52.49165 10.53932 3992 ft 210 kts 155°
2026-05-05 15:02 52.47825 10.54616 4003 ft 195 kts 172°
2026-05-05 15:02 52.46520 10.54670 4012 ft 184 kts 188°
2026-05-05 15:02 52.45291 10.54183 4008 ft 181 kts 203°
2026-05-05 15:03 52.44187 10.53214 4001 ft 179 kts 218°
2026-05-05 15:03 52.43279 10.51831 4017 ft 178 kts 232°
2026-05-05 15:03 52.42622 10.50164 4014 ft 176 kts 246°
2026-05-05 15:03 52.42228 10.48277 4017 ft 174 kts 261°
2026-05-05 15:04 52.42136 10.46309 4017 ft 174 kts 275°
2026-05-05 15:04 52.42348 10.44376 4000 ft 172 kts 287°
2026-05-05 15:04 52.42669 10.42482 4007 ft 173 kts 287°
2026-05-05 15:04 52.42996 10.40591 4011 ft 172 kts 288°
2026-05-05 15:05 52.43367 10.36705 3978 ft 173 kts 275°
2026-05-05 15:05 52.43440 10.34732 3933 ft 173 kts 275°
2026-05-05 15:05 52.43504 10.32790 3890 ft 173 kts 275°
2026-05-05 15:06 52.43567 10.30822 3843 ft 173 kts 274°
2026-05-05 15:06 52.43631 10.28853 3803 ft 173 kts 275°
2026-05-05 15:06 52.43697 10.26882 3753 ft 173 kts 275°
2026-05-05 15:06 52.43761 10.24919 3703 ft 172 kts 275°
2026-05-05 15:07 52.43826 10.22955 3652 ft 172 kts 275°
2026-05-05 15:07 52.43889 10.20996 3613 ft 172 kts 275°
2026-05-05 15:07 52.43953 10.19037 3570 ft 172 kts 275°
2026-05-05 15:07 52.44016 10.17081 3528 ft 172 kts 275°
2026-05-05 15:08 52.44078 10.15153 3496 ft 167 kts 275°
2026-05-05 15:08 52.44132 10.13377 3451 ft 146 kts 275°
2026-05-05 15:08 52.44182 10.11803 3395 ft 133 kts 275°
2026-05-05 15:08 52.44230 10.10301 3366 ft 131 kts 276°
2026-05-05 15:09 52.44278 10.08822 3333 ft 130 kts 275°
2026-05-05 15:09 52.44324 10.07352 3295 ft 129 kts 275°
2026-05-05 15:09 52.44370 10.05887 3254 ft 129 kts 275°
2026-05-05 15:09 52.44416 10.04420 3204 ft 129 kts 276°
2026-05-05 15:10 52.44461 10.02958 3149 ft 128 kts 276°
2026-05-05 15:10 52.44506 10.01519 3096 ft 128 kts 276°
2026-05-05 15:10 52.44550 10.00061 3039 ft 128 kts 276°
2026-05-05 15:10 52.44595 9.98601 3013 ft 128 kts 275°
2026-05-05 15:11 52.44639 9.97137 3013 ft 128 kts 276°
2026-05-05 15:11 52.44684 9.95675 2986 ft 129 kts 276°
2026-05-05 15:11 52.44713 9.94710 2924 ft 128 kts 276°
2026-05-05 15:11 52.44771 9.92771 2744 ft 126 kts 275°
2026-05-05 15:12 52.44800 9.91827 2643 ft 125 kts 274°
2026-05-05 15:12 52.44842 9.90415 2487 ft 123 kts 273°
2026-05-05 15:12 52.44884 9.89014 2331 ft 123 kts 272°
2026-05-05 15:12 52.44939 9.87154 2113 ft 124 kts 271°
2026-05-05 15:13 52.44981 9.85743 1945 ft 124 kts 270°
2026-05-05 15:13 52.45022 9.84323 1783 ft 125 kts 270°
2026-05-05 15:13 52.45050 9.83375 1681 ft 126 kts 275°
2026-05-05 15:13 52.45092 9.81946 1508 ft 126 kts 275°
2026-05-05 15:14 52.45134 9.80507 1342 ft 126 kts 275°
2026-05-05 15:14 52.45175 9.79080 1192 ft 125 kts 275°
2026-05-05 15:14 52.45216 9.77667 1013 ft 124 kts 275°
2026-05-05 15:14 52.45269 9.75810 776 ft 123 kts 275°
2026-05-05 15:15 52.45293 9.74869 644 ft 122 kts 274°
2026-05-05 15:15 52.45337 9.73482 461 ft 127 kts 274°
2026-05-05 15:15 52.45374 9.72010 350 ft 126 kts 274°
2026-05-05 15:15 52.45406 9.70639 201 ft 119 kts 274°
2026-05-05 15:16 52.45442 9.69443 185 ft 85 kts 273°
2026-05-05 15:16 52.45466 9.68735 182 ft 45 kts 272°
2026-05-05 15:16 52.45481 9.68336 181 ft 23 kts 276°
2026-05-05 15:16 52.45575 9.68257 180 ft 19 kts
2026-05-05 15:17 52.45642 9.68368 179 ft 15 kts 90°
2026-05-05 15:17 52.45637 9.68551 179 ft 17 kts 91°
2026-05-05 15:17 52.45632 9.68773 179 ft 22 kts 92°
2026-05-05 15:17 52.45624 9.69039 179 ft 23 kts 92°
2026-05-05 15:18 52.45681 9.69147 179 ft 10 kts
2026-05-05 15:18 52.45744 9.69175 179 ft 9 kts 36°
2026-05-05 15:18 52.45761 9.69266 179 ft 9 kts 94°
2026-05-05 15:18 52.45786 9.69342 179 ft 8 kts 33°
2026-05-05 15:19 52.45829 9.69384 179 ft 1 kts 30°
2026-05-05 15:19 52.45836 9.69390 179 ft 0 kts 30°
2026-05-05 15:19 52.45838 9.69392 179 ft 0 kts 30°